Location: Astronomy Club of Akron Observatory
(40.9700°N, 81.5606°W)
Time: 15:47:48
(UTC-05:00)

ATLAS 2AS CENTAUR R/B - Visible Passes

Search period start: 28 February 2015 00:00
Search period end: 10 March 2015 01:00
Orbit: 915 x 1297 km, 63.7° (Epoch: 27 February)

Date Brightness Start Highest point End Pass type
(mag) Time Alt. Az. Time Alt. Az. Time Alt. Az.
28 Feb 5.6 00:33:49 10° NNW 00:33:53 10° NNW 00:33:53 10° NNW visible
28 Feb 5.2 20:03:41 10° NW 20:07:58 15° NNW 20:12:13 10° NNE visible
28 Feb 5.0 21:58:20 10° NNW 22:02:41 15° NNE 22:03:07 15° NNE visible
28 Feb 5.3 23:49:09 10° NNW 23:50:34 15° NNW 23:50:34 15° NNW visible
01 Mar 5.1 19:17:12 10° WNW 19:22:16 18° NNW 19:27:19 10° NNE visible
01 Mar 5.1 21:13:10 10° NNW 21:16:53 14° N 21:19:48 11° NNE visible
01 Mar 5.0 23:04:30 10° NNW 23:07:15 19° N 23:07:15 19° N visible
02 Mar 5.1 20:27:31 10° NNW 20:31:03 13° N 20:34:36 10° NNE visible
02 Mar 4.9 22:19:50 10° NNW 22:23:55 20° N 22:23:55 20° N visible
03 Mar 5.4 00:10:26 10° NNW 00:11:21 14° NNW 00:11:21 14° NNW visible
03 Mar 5.1 19:41:20 10° NW 19:45:14 14° N 19:49:05 10° NNE visible
03 Mar 4.9 21:35:04 10° NNW 21:39:55 17° NNE 21:40:36 17° NNE visible
03 Mar 5.0 23:25:44 10° NNW 23:28:02 20° NNW 23:28:02 20° NNW visible
04 Mar 5.1 18:54:52 10° NW 18:59:28 16° NNW 19:04:02 10° NNE visible
04 Mar 5.0 20:50:06 10° NNW 20:54:10 14° NNE 20:57:17 12° NE visible
04 Mar 4.8 22:41:05 10° NNW 22:44:43 23° N 22:44:43 23° N visible
05 Mar 5.5 00:31:53 10° NW 00:32:10 11° NW 00:32:10 11° NW visible
05 Mar 5.1 20:04:46 10° NNW 20:08:20 13° N 20:11:59 10° NNE visible
05 Mar 4.6 21:56:26 10° NNW 22:01:25 23° NNE 22:01:25 23° NNE visible
05 Mar 5.1 23:47:04 10° NNW 23:48:51 18° NNW 23:48:51 18° NNW visible
06 Mar 5.1 19:18:53 10° NNW 19:22:31 13° N 19:26:09 10° NNE visible
06 Mar 4.7 21:11:45 10° NNW 21:17:06 19° NNE 21:18:07 19° NNE visible
06 Mar 4.7 23:02:21 10° NNW 23:05:34 25° NNW 23:05:34 25° NNW visible
07 Mar 4.9 20:26:55 10° NNW 20:31:25 16° NNE 20:34:50 12° NE visible
07 Mar 4.4 22:17:41 10° NNW 22:22:16 30° N 22:22:16 30° N visible
08 Mar 5.3 00:08:39 10° NW 00:09:43 15° NW 00:09:43 15° NW visible
08 Mar 5.0 20:41:49 10° NNW 20:45:38 14° N 20:49:34 10° NE visible
08 Mar 4.3 22:33:02 10° NNW 22:39:01 28° NNE 22:39:01 28° NNE visible
09 Mar 4.8 00:23:45 10° NW 00:26:27 24° NW 00:26:27 24° NW visible
09 Mar 5.0 19:56:16 10° NNW 19:59:49 13° N 20:03:22 10° NNE visible
09 Mar 4.5 21:48:22 10° NNW 21:54:15 22° NNE 21:55:45 21° NE visible
09 Mar 4.3 23:38:57 10° NNW 23:43:12 34° NNW 23:43:12 34° NNW visible
